Location: Unspecified
(0.0000°N, 0.0000°E)
Time: 08:03:42
(UTC+00:00)

Explorer 11/Cluster Stage 4 - All Passes

Search period start: 03 April 2020 00:00
Search period end: 13 April 2020 00:00
Orbit: 467 x 1259 km, 28.8° (Epoch: 02 April)

Date Brightness Start Highest point End Pass type
(mag) Time Alt. Az. Time Alt. Az. Time Alt. Az.
03 Apr - 01:26:50 10° SSW 01:33:30 27° SSE 01:39:46 10° E night (unlit)
03 Apr - 03:15:12 10° SW 03:23:16 77° SSE 03:30:06 10° ENE visible
03 Apr - 05:06:02 10° W 05:12:17 30° NNW 05:17:34 10° NNE visible
03 Apr - 14:18:00 10° NNW 14:21:10 26° NNE 14:24:43 10° E daylight
03 Apr - 16:05:27 10° W 16:09:24 42° SSW 16:14:13 10° SE daylight
03 Apr - 17:56:54 10° SW 17:58:42 12° SSW 18:00:37 10° S daylight
03 Apr - 23:29:49 10° S 23:32:14 11° SSE 23:34:40 10° SE night (unlit)
04 Apr - 01:15:36 10° SSW 01:22:42 31° SSE 01:29:26 10° E night (unlit)
04 Apr - 03:04:11 10° WSW 03:12:23 89° SSE 03:19:26 10° ENE visible
04 Apr - 04:55:25 10° W 05:01:28 27° NNW 05:06:41 10° NNE visible
04 Apr - 14:07:13 10° NW 14:10:33 33° NNE 14:14:16 10° E daylight
04 Apr - 15:55:11 10° W 15:58:50 32° SSW 16:03:09 10° SE daylight
04 Apr - 23:18:10 10° S 23:21:35 13° SSE 23:25:03 10° SE night (unlit)
05 Apr - 01:04:27 10° SW 01:11:52 36° SSE 01:19:00 10° E night (unlit)
05 Apr - 02:53:14 10° WSW 03:01:29 79° NNW 03:08:44 10° NE visible
05 Apr - 04:44:52 10° W 04:50:40 23° NNW 04:55:46 10° NNE visible
05 Apr - 13:56:30 10° NW 13:59:57 43° NNE 14:03:45 10° ESE daylight
05 Apr - 15:45:01 10° W 15:48:17 24° SSW 15:52:01 10° SSE daylight
05 Apr - 23:06:47 10° S 23:10:54 15° SSE 23:15:09 10° SE night (unlit)
06 Apr - 00:53:21 10° SW 01:00:59 42° SSE 01:08:28 10° E night (unlit)
06 Apr - 02:42:20 10° WSW 02:50:34 68° NNW 02:57:56 10° NE visible
06 Apr - 04:34:25 10° WNW 04:39:52 21° NNW 04:44:47 10° NNE visible
06 Apr - 13:45:49 10° NW 13:49:22 60° NNE 13:53:11 10° ESE daylight
06 Apr - 15:35:01 10° WSW 15:37:45 18° SSW 15:40:47 10° SSE daylight
06 Apr - 22:55:31 10° SSW 23:00:11 17° SSE 23:05:03 10° ESE night (unlit)
07 Apr - 00:42:18 10° SW 00:50:05 49° SSE 00:57:51 10° ENE night (unlit)
07 Apr - 02:31:30 10° WSW 02:39:38 59° NNW 02:47:06 10° NE visible
07 Apr - 04:24:02 10° WNW 04:29:06 18° NNW 04:33:43 10° NNE visible
07 Apr - 11:49:37 10° NNE 11:50:30 11° NNE 11:51:22 10° NE daylight
07 Apr - 13:35:12 10° WNW 13:38:48 84° NE 13:42:34 10° ESE daylight
07 Apr - 15:25:15 10° SW 15:27:14 13° SSW 15:29:20 10° S daylight
07 Apr - 22:44:19 10° SSW 22:49:25 19° SSE 22:54:49 10° ESE night (unlit)
08 Apr - 00:31:18 10° SW 00:39:09 56° SSE 00:47:10 10° ENE night (unlit)
08 Apr - 02:20:44 10° WSW 02:28:42 51° NNW 02:36:11 10° NE visible
08 Apr - 04:13:46 10° WNW 04:18:20 16° NNW 04:22:36 10° N visible
08 Apr - 11:37:48 10° N 11:39:58 14° NNE 11:42:02 10° ENE daylight
08 Apr - 13:24:37 10° WNW 13:28:14 69° SSW 13:31:54 10° SE daylight
08 Apr - 22:33:13 10° SSW 22:38:38 21° SSE 22:44:29 10° ESE night (unlit)
09 Apr - 00:20:22 10° SW 00:28:14 65° SSE 00:36:24 10° ENE night (unlit)
09 Apr - 02:10:02 10° W 02:17:47 44° NNW 02:25:13 10° NE visible
09 Apr - 04:03:38 10° NW 04:07:37 14° NNW 04:11:23 10° N visible
09 Apr - 11:26:29 10° NNW 11:29:26 19° NNE 11:32:09 10° ENE daylight
09 Apr - 13:14:06 10° WNW 13:17:39 48° SSW 13:21:12 10° SE daylight
09 Apr - 22:22:10 10° SSW 22:27:49 24° SSE 22:34:02 10° E night (unlit)
10 Apr - 00:09:30 10° SW 00:17:17 76° SSE 00:25:33 10° ENE night (unlit)
10 Apr - 01:59:25 10° W 02:06:52 38° NNW 02:14:11 10° NE visible
10 Apr - 03:53:40 10° NW 03:56:54 13° NNW 04:00:02 10° N visible
10 Apr - 11:15:21 10° NNW 11:18:53 26° NNE 11:22:04 10° E daylight
10 Apr - 13:03:38 10° W 13:07:05 35° SSW 13:10:26 10° SE daylight
10 Apr - 22:11:11 10° SSW 22:16:59 28° SSE 22:23:31 10° E night (unlit)
10 Apr - 23:58:41 10° WSW 00:06:20 87° SSE 00:14:39 10° ENE night (unlit)
11 Apr - 01:48:53 10° W 01:56:00 33° NNW 02:03:06 10° NNE visible
11 Apr - 03:43:59 10° NW 03:46:14 11° NNW 03:48:26 10° N visible
11 Apr - 11:04:17 10° NW 11:08:20 35° NNE 11:11:50 10° E daylight
11 Apr - 12:53:14 10° W 12:56:30 26° SSW 12:59:36 10° SSE daylight
11 Apr - 22:00:15 10° SSW 22:06:09 31° SSE 22:12:54 10° E night (unlit)
11 Apr - 23:47:57 10° WSW 23:55:24 82° NNW 00:03:42 10° NE night (unlit)
12 Apr - 01:38:26 10° W 01:45:09 29° NNW 01:51:57 10° NNE visible
12 Apr - 09:07:08 10° N 09:08:41 11° NNE 09:10:09 10° NE daylight
12 Apr - 10:53:18 10° NW 10:57:45 47° NNE 11:01:32 10° ESE daylight
12 Apr - 12:42:55 10° W 12:45:54 21° SSW 12:48:43 10° SSE daylight
12 Apr - 21:49:22 10° SSW 21:55:18 36° SSE 22:02:13 10° E night (unlit)
12 Apr - 23:37:16 10° WSW 23:44:29 70° NNW 23:52:41 10° NE night (unlit)
